ARIANE 5 DEB (SYLDA), 42694

Orbit data source: Space-Track

ARIANE 5 DEB (SYLDA), 42694 is space debris in HEO originally from a launch on Thu, 04 May 2017 UTC launched from the French Guiana (FRGUI). Debris objects in space refer to the collection of defunct objects orbiting the Earth. Examples of debris include non-operational satellites, rocket bodies, and fragments generated from explosions, collisions, or faulty payload assembly.

Loading next visibility...
Identifier
42694, 2017-023D
Orbit
HEO
Country
Flag of FRFR
Related business
Manufacturer
ADS/Bremen
Mission
Spacecraft
Bus & Motor
SYLDA 5, Unknown motor
Mass
440 kg wet, 440 kg dry
Launch date (UTC)
2017-05-04 (8 years ago)
Launch vehicle
Unknown
Launch site
French Guiana (FRGUI)
Object type
Payload
Rocket body
Debris
Shape & HBR
Cyl, 2.8 m
Radar Cross Section
27.391 m², Large (>1 m²)

Expand to show TLE details & history
Last TLE update: 9 hours ago

TLE from 9 hours ago
0 ARIANE 5 DEB (SYLDA)
1 42694U 17023D   25258.54064679  .00000080  00000-0  17471-3 0  9992
2 42694   3.7237  89.2489 5505937  18.3155 355.5806  4.56126973103645
Epoch: 2025-09-15T12:58Z
TLE epoch observation values (Epoch: 2025-09-15T12:58:31.882Z)
Latitude
0.00003°
Longitude
-100.05283°
Altitude
652.097 km
Speed
9.351 km/s
True Right ascension
05h 57m 17s
True Declination
0° 00' 00"
Sunlit
Object was in daylight at epoch
Visualization orbit readout
Latitude
Unknown
Longitude
Unknown
Altitude
Unknown
Speed
Unknown
Apparent Right ascension
Unknown
Apparent Declination
Unknown
Sunlit
N/A
Visualization observer readout
Local Sidereal Time
14:44:22
Azimuth
Unknown
Elevation
Unknown
Doppler factor
Unknown
Orbital elements
Apogee altitude
17,444.042 km
Perigee altitude
526.21 km
Semi-major axis
15,363.263 km
Eccentricity
0.55059
Inclination
3.7237°
RAAN
89.2489°
Arg. of periapsis
18.3155°
True anomaly
341.94801°
Mean anomaly
355.5806°
Eccentric anomaly
350.22416°
Mean motion
1.13977 °/min
Orbital period
315.85 mins
BSTAR
0.00017471
Loading maneuver chart data...
Computing Atmospheric mass density...
Loading historical data...
Loading historical data...
Loading historical data...
Loading historical data...
Loading historical data...
Loading historical data...
Loading historical data...
Other satellites on launch #23 in the year 2017 (2017-05-04 UTC)

Documentation

Showing up to 5 results
|